#timestamp,LO_Frequency,Hit,StdDev 
1672815615.8,286046996.5,N
1672815635.6,286046999.3,N
1672815655.5,286046996.5,N
1672815675.3,286046997.3,N
1672815695.2,286046997.9,N
1672815715.9,286046997.5,N
1672815735.7,286046997.6,N
1672815755.6,286046995.0,Y
1672815775.4,286046999.0,P
1672815795.3,286046996.7,P
1672815815.1,286046996.8,P
1672815835.9,286046997.1,Y
1672815855.7,286046998.5,P
1672815875.5,286047001.2,N
1672815895.4,286046998.5,N
1672815915.2,286046998.5,N
1672815935.0,286046998.1,N
1672815935.9,286046998.1,N
1672815955.8,286046998.6,N
1672815975.6,286046998.3,N
1672815995.5,286046998.4,N
1672816015.3,286046998.4,N
1672816035.1,286046999.6,N
1672816055.9,286046997.2,Y
1672816075.7,286046998.9,P
1672816095.5,286046999.3,P
1672816115.4,286046999.0,P
1672816135.2,286046999.0,Y
1672816155.1,286046998.5,P
1672816156.0,286046998.5,P
1672816175.8,286046998.5,P
1672816195.6,286047001.1,Y
1672816215.5,286046999.9,P
1672816235.3,286047001.0,N
1672816255.2,286047001.2,N
1672816275.9,286046999.4,N
1672816295.7,286046999.5,N
1672816315.6,286046999.1,N
1672816335.4,286046997.6,N
1672816355.2,286046997.3,N
1672816375.1,286046996.7,N
1672816376.0,286046996.7,N
1672816395.8,286046997.0,N
1672816415.7,286046998.6,N
1672816435.5,286046998.5,N
1672816455.3,286047000.8,N
1672816475.2,286047001.1,N
1672816495.0,286047000.9,N
1672816495.9,286047000.9,N
1672816515.7,286047000.5,N
1672816535.6,286047002.0,N
1672816555.4,286047002.3,N
1672816575.3,286047002.4,N
1672816595.1,286047011.9,Y
1672816596.0,286047000.1,P
1672816615.8,286047002.4,P
1672816635.7,286047002.1,N
1672816655.5,286047000.9,N
1672816675.3,286046998.3,N
1672816695.2,286046999.6,N
1672816715.0,286046999.6,N
1672816715.9,286046999.6,N
1672816735.8,286046999.2,N
1672816755.6,286046998.7,N
1672816775.4,286046998.8,N
1672816795.3,286046996.5,N
1672816815.1,286046997.0,N
1672816835.8,286046996.9,N
1672816855.7,286046997.2,N
1672816875.5,286046996.6,N
1672816895.4,286046997.9,N
1672816915.2,286046995.4,N
1672816935.0,286046995.3,N
1672816935.9,286046995.3,N
1672816955.8,286046995.6,N
1672816975.6,286046997.5,N
1672816995.4,286046997.5,N
1672817015.3,286046996.7,N
1672817035.1,286046995.3,N
1672817055.9,286046994.9,N
1672817075.7,286046998.0,N
1672817095.5,286046997.1,N
1672817115.4,286046997.8,N
1672817135.2,286046997.7,N
1672817155.0,286046996.5,N
1672817155.9,286046996.5,N
1672817175.8,286046997.0,N
1672817195.6,286046996.7,N
1672817215.5,286046997.8,N
1672817235.3,286046995.4,Y
1672817255.1,286047001.1,P
1672817275.9,286046998.3,N
1672817295.7,286046999.3,N
1672817315.6,286046999.3,N
1672817335.4,286046996.8,N
1672817355.2,286046997.0,N
1672817375.1,286046996.8,N
1672817376.0,286046996.8,N
1672817395.8,286046997.7,N
1672817415.7,286046997.8,N
1672817435.5,286046999.5,N
1672817455.3,286046999.5,N
1672817475.2,286046999.2,N
1672817495.0,286046996.5,N
1672817495.9,286046996.5,N
1672817515.8,286046998.3,N
1672817535.6,286046997.3,N
1672817555.4,286046997.1,N
1672817575.7,286046997.7,N
1672817595.5,286046999.6,N
1672817615.4,286046998.9,N
1672817635.2,286046998.8,N
1672817655.0,286046999.0,N
1672817655.9,286046999.0,N
1672817675.8,286046999.4,N
1672817695.6,286046998.9,N
1672817715.4,286046999.6,N
1672817735.3,286046996.5,N
1672817755.1,286046997.2,N
1672817775.9,286046995.0,Y
1672817795.7,286046999.5,P
1672817815.5,286046997.2,P
1672817835.4,286046996.8,P
1672817855.2,286046997.8,N
1672817875.0,286046997.8,N
1672817875.9,286046997.8,N
1672817895.8,286046996.7,Y
1672817915.6,286047000.4,P
1672817935.5,286047000.1,N
1672817955.3,286047002.5,N
1672817975.1,286047004.2,N
1672817995.9,286047001.3,N
1672818015.7,286047006.0,Y
1672818035.5,286047003.6,P
1672818055.4,286047005.7,P
1672818075.2,286047005.7,N
1672818095.1,286047005.3,N
1672818096.0,286047005.3,N
1672818115.8,286047005.1,Y
1672818135.7,286047002.5,P
1672818155.5,286046999.8,N
1672818175.3,286047000.9,N
1672818195.2,286046998.2,N
1672818215.0,286046996.8,N
1672818215.9,286046996.8,N
1672818235.7,286046996.5,N
1672818255.6,286046998.3,N
1672818275.4,286047002.8,N
1672818295.3,286047002.2,N
1672818315.1,286047001.8,N
1672818335.9,286047001.6,N
1672818355.7,286047000.4,N
1672818375.5,286046998.2,N
1672818395.4,286047002.3,N
1672818415.2,286047002.0,N
1672818435.0,286047001.7,N
1672818435.9,286047001.7,N
1672818455.8,286047001.3,N
1672818475.6,286047003.4,N
1672818495.5,286047001.4,N
1672818515.3,286047003.7,N
1672818535.1,286047005.7,N
1672818555.9,286047005.7,N
1672818575.7,286047005.9,N
1672818595.5,286047006.0,N
1672818615.4,286047003.3,N
1672818635.2,286047005.1,N
1672818655.1,286047005.2,N
1672818656.0,286047005.2,N
1672818675.8,286047005.1,N
1672818695.6,286047001.7,N
1672818715.5,286047003.7,N
1672818735.3,286047004.2,N
1672818755.2,286047001.4,N
1672818775.9,286047004.3,N
1672818795.7,286047004.4,N
1672818815.6,286047001.9,N
1672818835.4,286047001.6,N
1672818855.2,286047001.9,N
1672818875.1,286047004.3,N
1672818876.0,286047004.3,N
1672818895.8,286046999.7,N
1672818915.7,286047000.2,N
1672818935.5,286047002.3,N
1672818955.3,286047000.5,N
1672818975.2,286047002.4,N
1672818995.0,286047000.2,N
1672818995.9,286047000.2,N
1672819015.8,286047002.2,N
1672819035.6,286047004.4,N
1672819055.4,286047001.7,N
1672819075.3,286047001.5,N
1672819095.1,286047003.9,N
1672819115.9,286047005.5,N
1672819135.7,286047005.7,Y
1672819155.5,286047000.3,P
1672819175.4,286047000.6,N
1672819195.2,286046998.2,N
